Location: Arborea
(39.7744°N, 8.5819°E)
Time: 01:21:26
(UTC+00:00)

Oscar 11 - Visible Passes

Search period start: 24 May 2024 00:00
Search period end: 03 June 2024 00:00
Orbit: 602 x 615 km, 97.7° (Epoch: 23 May)

Date Brightness Start Highest point End Pass type
(mag) Time Alt. Az. Time Alt. Az. Time Alt. Az.
24 May 9.8 02:05:10 10° ENE 02:06:55 12° E 02:08:40 10° ESE visible
25 May 9.5 02:17:52 10° NE 02:20:45 18° E 02:23:36 10° SE visible
26 May 9.1 02:31:01 10° NE 02:34:32 25° E 02:38:00 10° SSE visible
27 May 8.5 02:44:23 10° NNE 02:48:17 35° E 02:52:09 10° SSE visible
28 May 7.8 02:57:51 10° NNE 03:02:00 51° E 03:06:07 10° S visible
29 May 7.2 03:11:26 10° NNE 03:15:41 75° E 03:19:54 10° S visible
30 May 7.0 03:25:06 10° N 03:29:21 76° WNW 03:33:33 10° SSW visible
31 May 9.8 02:04:59 10° ENE 02:06:47 12° E 02:08:34 10° ESE visible
01 Jun 9.5 02:17:40 10° NE 02:20:34 18° E 02:23:26 10° SE visible
02 Jun 9.0 02:30:47 10° NE 02:34:18 25° E 02:37:48 10° SSE visible
